Weather History for Newport, VT

Change the Weather History Date:

Friday, February 15, 2013

  Actual Average Record
Temperature  
Mean Temperature 32 °F -  
Max Temperature 38 °F 29 °F 49 °F (1972)
Min Temperature 26 °F 6 °F -30 °F (1943)
Degree Days  
Heating Degree Days 33    
Moisture  
Dew Point 21 °F    
Average Humidity 65    
Maximum Humidity 89    
Minimum Humidity 49    
Precipitation  
Precipitation 0.00 in - - ()
Sea Level Pressure  
Sea Level Pressure 29.86 in    
Wind  
Wind Speed 6 mph (SW)    
Max Wind Speed 15 mph    
Max Gust Speed 23 mph    
Visibility 9 miles    
Events Rain , Snow    
Averages and records for this station are not official NWS values.
T = Trace of Precipitation, MM = Missing Value Source: NWS Daily Summary

Daily Weather History Graph

Daily Weather History Graph

Search for Another Location

Airport:

Trip Planner

Search our weather history database for the weather conditions in past years. The results will help you decide how hot, cold, wet, or windy it might be!

Date:

Astronomy

Feb. 15, 2013 Rise Set
Actual Time 6:49 AM EST 5:17 PM EST
Civil Twilight 6:19 AM EST 5:47 PM EST
Nautical Twilight 5:44 AM EST 6:21 PM EST
Astronomical Twilight 5:11 AM EST 6:55 PM EST
Moon 9:06 AM EST (2/15) 11:33 PM EST (2/15)
Length of Visible Light 11h 28m
Length of Day
10h 28m
Waxing Crescent, 30% of the Moon is Illuminated
Feb 15
Waxing Crescent
Feb 17
First Quarter
Feb 25
Full
Mar 4
Last Quarter
Mar 11
New

Hourly Weather History & Observations

Time (EST) Temp. Windchill Dew Point Humidity Pressure Visibility Wind Dir Wind Speed Gust Speed Precip Events Conditions
12:15 AM 27.1 °F 20.7 °F 16.7 °F 65% 29.90 in 10.0 mi South 5.8 mph - N/A   Overcast
12:35 AM 27.5 °F - 16.5 °F 63% 29.89 in 10.0 mi Calm Calm - N/A   Overcast
12:55 AM 27.1 °F 23.2 °F 16.7 °F 65% 29.88 in 10.0 mi South 3.5 mph - N/A   Overcast
1:15 AM 26.6 °F 21.2 °F 16.5 °F 66% 29.88 in 10.0 mi South 4.6 mph - N/A   Overcast
1:35 AM 27.0 °F 21.6 °F 16.5 °F 65% 29.87 in 10.0 mi South 4.6 mph - N/A   Overcast
1:55 AM 27.3 °F 22.0 °F 16.5 °F 64% 29.87 in 10.0 mi South 4.6 mph - N/A   Overcast
2:15 AM 27.5 °F 23.6 °F 16.3 °F 63% 29.86 in 10.0 mi South 3.5 mph - N/A   Mostly Cloudy
2:35 AM 27.1 °F - 16.0 °F 63% 29.85 in 10.0 mi Calm Calm - N/A   Scattered Clouds
2:55 AM 26.4 °F 19.8 °F 15.8 °F 64% 29.85 in 10.0 mi South 5.8 mph - N/A   Mostly Cloudy
3:15 AM 27.0 °F 21.6 °F 16.5 °F 65% 29.84 in 10.0 mi South 4.6 mph - N/A   Overcast
3:35 AM 27.3 °F 20.9 °F 17.1 °F 65% 29.84 in 10.0 mi SSW 5.8 mph - N/A   Overcast
3:55 AM 26.2 °F 19.6 °F 17.2 °F 69% 29.84 in 10.0 mi SSW 5.8 mph - N/A   Overcast
4:15 AM 27.5 °F 20.2 °F 18.1 °F 68% 29.83 in 10.0 mi South 6.9 mph - N/A   Overcast
4:35 AM 29.1 °F 23.0 °F 18.5 °F 65% 29.83 in 10.0 mi South 5.8 mph - N/A   Overcast
4:55 AM 28.9 °F 22.8 °F 18.5 °F 65% 29.83 in 10.0 mi South 5.8 mph - N/A   Overcast
5:15 AM 29.1 °F 24.1 °F 18.5 °F 65% 29.82 in 10.0 mi SSW 4.6 mph - N/A   Overcast
5:35 AM 29.3 °F 23.2 °F 19.2 °F 66% 29.81 in 10.0 mi South 5.8 mph - N/A   Overcast
5:55 AM 29.3 °F 22.3 °F 19.6 °F 67% 29.83 in 10.0 mi South 6.9 mph - N/A   Overcast
6:15 AM 28.9 °F 21.9 °F 20.3 °F 70% 29.83 in 10.0 mi SSW 6.9 mph - N/A   Overcast
6:35 AM 28.8 °F - 21.2 °F 73% 29.82 in 10.0 mi Calm Calm - N/A   Overcast
6:55 AM 28.8 °F 22.6 °F 21.9 °F 76% 29.82 in 5.0 mi SSW 5.8 mph - N/A Snow Light Snow
7:15 AM 28.2 °F 23.1 °F 22.8 °F 80% 29.83 in 2.0 mi SSW 4.6 mph - N/A Snow Light Snow
7:35 AM 28.2 °F 22.0 °F 23.9 °F 84% 29.82 in 3.0 mi South 5.8 mph - N/A Snow Light Snow
7:55 AM 28.4 °F 22.2 °F 24.8 °F 86% 29.83 in 1.0 mi South 5.8 mph - N/A Snow Light Snow
8:15 AM 28.6 °F 23.5 °F 25.3 °F 88% 29.83 in 1.0 mi South 4.6 mph - N/A Snow Light Snow
8:35 AM 28.8 °F 25.0 °F 25.9 °F 89% 29.83 in 0.8 mi South 3.5 mph - N/A Snow Light Snow
8:55 AM 30.0 °F 24.1 °F 26.6 °F 87% 29.82 in 5.0 mi South 5.8 mph - N/A Snow Light Snow
9:15 AM 31.6 °F 26.0 °F 26.6 °F 82% 29.82 in 7.0 mi South 5.8 mph - N/A   Overcast
9:35 AM 32.4 °F 26.0 °F 27.3 °F 82% 29.83 in 4.0 mi SSW 6.9 mph - N/A Snow Light Snow
9:55 AM 33.1 °F 26.9 °F 27.3 °F 79% 29.83 in 10.0 mi South 6.9 mph - N/A   Scattered Clouds
10:15 AM 34.9 °F 28.3 °F 27.9 °F 76% 29.83 in 10.0 mi South 8.1 mph - N/A   Mostly Cloudy
10:35 AM 35.6 °F 29.2 °F 27.9 °F 73% 29.83 in 10.0 mi South 8.1 mph - N/A   Overcast
10:55 AM 36.5 °F 30.3 °F 28.6 °F 73% 29.83 in 10.0 mi South 8.1 mph - N/A   Overcast
11:15 AM 36.9 °F 30.1 °F 29.1 °F 74% 29.82 in 7.0 mi SSW 9.2 mph - N/A   Overcast
11:35 AM 38.3 °F 31.9 °F 28.2 °F 67% 29.82 in 10.0 mi South 9.2 mph - N/A   Mostly Cloudy
11:55 AM 37.9 °F 30.9 °F 27.3 °F 66% 29.81 in 10.0 mi SSW 10.4 mph - N/A   Mostly Cloudy
12:15 PM 37.8 °F 30.2 °F 27.1 °F 66% 29.82 in 10.0 mi SSW 11.5 mph 17.3 mph N/A   Overcast
12:35 PM 38.3 °F 30.9 °F 27.1 °F 64% 29.81 in 10.0 mi SSW 11.5 mph 16.1 mph N/A   Mostly Cloudy
12:55 PM 38.8 °F 30.4 °F 26.6 °F 61% 29.80 in 10.0 mi SSW 15.0 mph 18.4 mph N/A   Overcast
1:15 PM 38.3 °F 30.5 °F 26.8 °F 63% 29.80 in 10.0 mi SSW 12.7 mph 23.0 mph N/A   Overcast
1:35 PM 37.8 °F 29.8 °F 26.8 °F 65% 29.81 in 10.0 mi SW 12.7 mph 21.9 mph N/A Rain Light Rain
1:55 PM 36.7 °F 28.9 °F 27.7 °F 70% 29.82 in 7.0 mi West 11.5 mph - N/A Snow Light Snow
2:15 PM 35.1 °F 30.1 °F 30.0 °F 82% 29.83 in 7.0 mi West 5.8 mph - N/A Rain Light Rain
2:35 PM 35.6 °F 29.9 °F 29.5 °F 78% 29.83 in 10.0 mi SW 6.9 mph - N/A Rain Light Rain
2:55 PM 36.0 °F 27.1 °F 28.2 °F 73% 29.83 in 10.0 mi SW 13.8 mph - N/A   Overcast
3:15 PM 37.4 °F 30.8 °F 27.0 °F 66% 29.83 in 10.0 mi SW 9.2 mph - N/A   Mostly Cloudy
3:35 PM 37.6 °F 29.1 °F 25.2 °F 61% 29.84 in 10.0 mi SW 13.8 mph 19.6 mph N/A   Mostly Cloudy
3:55 PM 38.3 °F 31.4 °F 22.1 °F 52% 29.84 in 10.0 mi WSW 10.4 mph - N/A   Overcast
4:15 PM 37.8 °F 31.3 °F 20.8 °F 51% 29.85 in 10.0 mi WSW 9.2 mph 18.4 mph N/A   Mostly Cloudy
4:35 PM 37.4 °F 30.3 °F 20.8 °F 51% 29.85 in 10.0 mi WSW 10.4 mph - N/A   Overcast
4:55 PM 36.7 °F 29.4 °F 21.0 °F 53% 29.86 in 10.0 mi WSW 10.4 mph 18.4 mph N/A   Overcast
5:15 PM 36.0 °F 30.3 °F 21.7 °F 56% 29.86 in 10.0 mi SSW 6.9 mph - N/A   Scattered Clouds
5:35 PM 35.6 °F 28.6 °F 21.0 °F 55% 29.87 in 10.0 mi SSW 9.2 mph - N/A   Scattered Clouds
5:55 PM 35.6 °F 28.6 °F 21.0 °F 55% 29.87 in 10.0 mi SW 9.2 mph - N/A   Mostly Cloudy
6:15 PM 36.1 °F 29.9 °F 20.1 °F 52% 29.89 in 10.0 mi SW 8.1 mph - N/A   Mostly Cloudy
6:35 PM 35.6 °F 29.2 °F 21.0 °F 55% 29.90 in 10.0 mi West 8.1 mph - N/A   Mostly Cloudy
6:55 PM 34.7 °F - 21.2 °F 58% 29.90 in 10.0 mi Calm Calm - N/A   Scattered Clouds
7:15 PM 33.8 °F 30.8 °F 20.8 °F 59% 29.90 in 10.0 mi WNW 3.5 mph - N/A   Scattered Clouds
7:35 PM 33.8 °F 27.7 °F 20.1 °F 57% 29.90 in 10.0 mi West 6.9 mph - N/A   Overcast
7:55 PM 33.6 °F 29.4 °F 19.2 °F 56% 29.91 in 10.0 mi West 4.6 mph - N/A   Overcast
8:15 PM 33.6 °F 26.8 °F 18.9 °F 55% 29.92 in 10.0 mi West 8.1 mph - N/A   Overcast
8:35 PM 33.3 °F 27.1 °F 18.3 °F 54% 29.92 in 10.0 mi West 6.9 mph - N/A   Overcast
8:55 PM 32.9 °F 25.3 °F 17.2 °F 53% 29.92 in 10.0 mi West 9.2 mph - N/A   Overcast
9:15 PM 32.9 °F 25.3 °F 16.5 °F 51% 29.92 in 10.0 mi West 9.2 mph - N/A   Overcast
9:35 PM 32.0 °F 27.5 °F 16.7 °F 53% 29.92 in 10.0 mi West 4.6 mph - N/A   Mostly Cloudy
9:55 PM 32.0 °F 26.4 °F 16.0 °F 52% 29.92 in 10.0 mi WSW 5.8 mph - N/A   Overcast
10:15 PM 32.0 °F 26.4 °F 15.8 °F 51% 29.92 in 10.0 mi WNW 5.8 mph - N/A   Overcast
10:35 PM 32.0 °F 26.4 °F 14.9 °F 49% 29.92 in 10.0 mi West 5.8 mph - N/A   Mostly Cloudy
10:55 PM 31.6 °F 25.1 °F 15.1 °F 50% 29.91 in 10.0 mi WSW 6.9 mph - N/A   Scattered Clouds
11:15 PM 31.1 °F 24.5 °F 15.1 °F 52% 29.91 in 10.0 mi West 6.9 mph - N/A   Scattered Clouds
11:35 PM 30.6 °F 23.1 °F 14.9 °F 52% 29.91 in 10.0 mi WSW 8.1 mph - N/A   Clear
11:55 PM 30.2 °F 24.3 °F 14.9 °F 53% 29.91 in 10.0 mi West 5.8 mph - N/A   Clear